Home > Weather > Larnaca > Past weeks

Flag for Cyprus Weather for the Past 2 Weeks in Larnaca, Cyprus

Now
64 °F

Clear.


Feels Like: 64 °F
Forecast: 57 / 84 °F
Wind: 6 mph from North

Location: Larnaca Airport

Current Time: May 1, 2016 at 1:41:29 AM

Latest Report: May 1, 2016 at 1:00 AM


Visibility: 10 mi

Pressure: 29.86 "Hg

Humidity: 88%

Dew Point: 61 °F

Location of LarnacaLocation

Historic Weather in Larnaca — Graph

°F

Larnaca Temperature Yesterday

Maximum temperature yesterday: 77 °F (at 12:00 PM)
Minimum temperature yesterday: 61 °F (at 2:30 AM)
Average temperature yesterday: 70 °F

High & Low Weather Summary for the Past Weeks

 TemperatureHumidityPressure
High88 °F (Apr 20, 11:00 AM)100% (Apr 16, 2:00 AM)30.09 "Hg (Apr 16, 2:00 AM)
Low55 °F (Apr 18, 6:00 AM)12% (Apr 20, 10:30 AM)29.62 "Hg (Apr 25, 3:30 AM)
Average70 °F60%29.91 "Hg
* Reported Midnight between Apr 15 and Apr 16 — Midnight between Apr 30 and May 1, Larnaca, Weather by CustomWeather, © 2016

Note: Actual official high and low records may vary slightly from our data, if they occured in-between our weather recording intervals... More about our weather records

Advertising

Larnaca Weather History for the Previous 24 Hours

Scroll right to see more
 ConditionsComfort  
Time TempWeatherWind HumidityBarometerVisibility
12:00 AM
Sun, May 1
68 °FClear.2 mph94%29.86 "Hg10 mi
11:30 PM
Sat, Apr 30
68 °FClear.3 mph94%29.86 "Hg10 mi
11:00 PM70 °FClear.5 mph88%29.89 "Hg10 mi
10:30 PM70 °FClear.5 mph88%29.89 "Hg10 mi
10:00 PM68 °FClear.3 mph88%29.89 "Hg10 mi
9:30 PM68 °FClear.1 mph83%29.89 "Hg10 mi
9:00 PM68 °FClear.3 mph78%29.89 "Hg10 mi
8:30 PM68 °FPassing clouds.3 mph73%29.89 "HgN/A
8:00 PM70 °FSunny.7 mph64%29.86 "Hg10 mi
7:30 PM72 °FSunny.6 mph57%29.86 "Hg10 mi
7:00 PM73 °FSunny.6 mph50%29.86 "Hg10 mi
6:30 PM75 °FSunny.9 mph44%29.86 "Hg10 mi
6:00 PM77 °FSunny.12 mph36%29.86 "Hg10 mi
5:30 PM77 °FSunny.13 mph36%29.86 "Hg10 mi
5:00 PM77 °FSunny.13 mph39%29.89 "Hg10 mi
4:30 PM77 °FSunny.13 mph39%29.89 "Hg10 mi
4:00 PM77 °FSunny.12 mph34%29.89 "Hg10 mi
3:30 PM77 °FSunny.13 mph42%29.89 "Hg10 mi
3:00 PM77 °FSunny.14 mph47%29.92 "Hg10 mi
2:30 PM77 °FSunny.13 mph42%29.92 "Hg10 mi
2:00 PM77 °FSunny.12 mph47%29.92 "Hg10 mi
1:30 PM77 °FSunny.13 mph44%29.92 "Hg10 mi
1:00 PM77 °FSunny.12 mph44%29.92 "Hg10 mi
12:00 PM77 °FPassing clouds.12 mph44%29.95 "HgN/A
11:30 AM75 °FPassing clouds.12 mph54%29.95 "HgN/A
11:00 AM75 °FPassing clouds.12 mph57%29.95 "HgN/A
10:00 AM72 °FPassing clouds.7 mph73%29.98 "HgN/A
9:30 AM70 °FPassing clouds.5 mph78%29.98 "HgN/A
9:00 AM70 °FPassing clouds.3 mph73%29.95 "HgN/A
8:30 AM68 °FPassing clouds.6 mph78%29.95 "HgN/A
8:00 AM68 °FSunny.7 mph78%29.95 "Hg10 mi
7:30 AM66 °FSunny.7 mph83%29.95 "Hg10 mi
7:00 AM64 °FSunny.6 mph88%29.95 "Hg10 mi
6:30 AM63 °FClear.6 mph83%29.95 "Hg10 mi
6:00 AM63 °FClear.5 mph83%29.92 "Hg10 mi
5:30 AM61 °FClear.3 mph88%29.92 "Hg10 mi
5:00 AM63 °FSprinkles. Clear.No wind83%29.92 "HgN/A
4:00 AM61 °FClear.2 mph83%29.92 "Hg10 mi
3:00 AM61 °FClear.5 mph77%29.95 "Hg10 mi
2:30 AM61 °FPassing clouds.2 mph83%29.95 "HgN/A
2:00 AM63 °FPassing clouds.2 mph77%29.95 "HgN/A
1:30 AM64 °FClear.No wind73%29.95 "Hg10 mi
1:00 AM63 °FClear.1 mph73%29.95 "Hg10 mi
Weather by CustomWeather, © 2016

See weather overviewHow to use our weather pages